Location: Altavilla Irpina
(41.0000°N, 14.7833°E)
Time: 20:41:09
(UTC+00:00)

Cosmos 1356 Rocket - Pass Details

Date: 19 May 2025
Orbit: 517 x 566 km, 81.2° (Epoch: 20 June)

Event Time Altitude Azimuth Distance (km) Brightness Sun altitude
Exits shadow 20:28:26 52° 171° (S) 708 3.5 -19.9°
Maximum altitude 20:29:22 78° 99° (E) 584 3.2 -20.0°
Drops below altitude 10° 20:33:29 10° 12° (NNE) 1,861 6.6 -20.5°
Sets 20:35:40 0° 12° (NNE) 2,756 7.5 -20.7°
